This demonstration page uses our WeatherBlox Daily Observations layout. Learn more.

Left ArrowRight Arrow

Hourly Observations for December 1, 2022

Temp ( °F °C ) Dew Point ( °F °C ) Humidity (%) Winds ( mph kmh ) Pressure ( in mb ) Visibility ( mi km ) Precip ( " mm )
12:53 am 00:53 Clear 40 4.4 31 -0.6 70 70 NE 7 11 30.40 1030 10 16 0.00 0.00
1:53 am 01:53 Clear 39 3.9 31 -0.6 72 72 NNE 8 13 30.40 1030 10 16 0.00 0.00
2:53 am 02:53 Clear 39 3.9 30 -1.1 70 70 E 8 13 30.40 1030 10 16 0.00 0.00
3:53 am 03:53 Clear 38 3.3 30 -1.1 73 73 ENE 6 9 30.40 1029 10 16 0.00 0.00
4:53 am 04:53 Clear 39 3.9 28 -2.2 64 64 ENE 5 7 30.40 1030 10 16 0.00 0.00
5:53 am 05:53 Clear 38 3.3 28 -2.2 67 67 ENE 5 7 30.42 1030 10 16 0.00 0.00
6:53 am 06:53 Sunny 37 2.8 29 -1.7 72 72 E 5 7 30.44 1031 10 16 0.00 0.00
7:53 am 07:53 Sunny 40 4.4 29 -1.7 64 64 ENE 7 11 30.46 1031 10 16 0.00 0.00
8:53 am 08:53 Sunny 44 6.7 28 -2.2 53 53 E 10 17 30.45 1031 10 16 0.00 0.00
9:53 am 09:53 Sunny 48 8.9 27 -2.8 44 44 E 9 15 30.45 1031 10 16 0.00 0.00
10:53 am 10:53 Sunny 51 10.6 26 -3.3 37 37 E 8 13 30.44 1031 10 16 0.00 0.00
11:53 am 11:53 Sunny 54 12.2 25 -3.9 32 32 SE 8 13 30.41 1030 10 16 0.00 0.00
12:53 pm 12:53 Sunny 56 13.3 26 -3.3 31 31 ESE 6 9 30.38 1029 10 16 0.00 0.00
1:53 pm 13:53 Sunny 59 15 27 -2.8 29 29 ENE 6 9 30.36 1028 10 16 0.00 0.00
2:53 pm 14:53 Sunny 59 15 27 -2.8 29 29 E 9 15 30.34 1027 10 16 0.00 0.00
3:53 pm 15:53 Sunny 59 15 29 -1.7 32 32 ESE 6 9 30.32 1027 10 16 0.00 0.00
4:53 pm 16:53 Sunny 56 13.3 30 -1.1 37 37 ENE 5 7 30.32 1027 10 16 0.00 0.00
5:53 pm 17:53 Clear 51 10.6 31 -0.6 46 46 ENE 5 7 30.32 1027 10 16 0.00 0.00
7:53 pm 19:53 Clear 44 6.7 35 1.7 70 70 NW 3 6 30.33 1027 10 16 0.00 0.00
8:53 pm 20:53 Clear 43 6.1 36 2.2 76 76 Calm 30.33 1027 10 16 0.00 0.00
9:53 pm 21:53 Clear 42 5.6 35 1.7 76 76 ESE 6 9 30.32 1027 10 16 0.00 0.00
10:53 pm 22:53 Clear 41 5 35 1.7 79 79 Calm 30.32 1027 10 16 0.00 0.00
11:53 pm 23:53 Clear 39 3.9 35 1.7 86 86 Calm 30.30 1026 10 16 0.00 0.00

Powered by AerisWeather